sat.trackr.live / text

‹ back to catalog

YAOGAN-25 01C

NORAD 40340 · 2014-080C

PAYLOAD ACTIVE UNKNOWN

§ Identity

Operator
Country
PRC
Launch date
2014-12-10
Launch site
JSC
Launch vehicle
Mass (kg)
RCS (m²)
2.63

External: N2YO · Heavens-Above · Gunter

§ Orbital elements

Epoch: 2026-09-15T23:13:48.794304Z

Period
107.03 min
Inclination
63.3843°
Eccentricity
0.0374879
Mean motion
13.45355952 rev/d
Perigee alt
809.5 km
Apogee alt
1,369.3 km
Semi-major
7,467.5 km
B*
5.6158e-5
RAAN
77.3918°
Arg perigee
10.1096°
Mean anomaly
350.7206°
Rev number
57,796

§ Raw data

YAOGAN-25 01C1 40340U 14080C   26258.96792586 -.00000040  00000+0  56158-4 0  99922 40340  63.3843  77.3918 0374879  10.1096 350.7206 13.45355952577969

JSON: /api/v1/satellites/40340 · /tle

For live sub-satellite position, see the globe view (requires WebGL).

§ Visibility from observer

Set your observer location to see the next 7 days of passes ≥ 10°. The values pass through the URL so the page stays shareable.

No JS? Fill the form by hand. The geolocation button needs JavaScript.